sat.trackr.live / text

‹ back to catalog

STARLINK-35040

NORAD 65480 · 2025-195Y

PAYLOAD ACTIVE UNKNOWN

§ Identity

Operator
Country
US
Launch date
2025-09-03
Launch site
AFETR
Launch vehicle
Mass (kg)
RCS (m²)

Purposes: comms

External: N2YO · Heavens-Above · Gunter

§ Orbital elements

Epoch: 2026-05-24T16:32:15.754272Z

Period
93.85 min
Inclination
53.1589°
Eccentricity
0.0001026
Mean motion
15.34397510 rev/d
Perigee alt
462.0 km
Apogee alt
463.4 km
Semi-major
6,840.8 km
B*
6.4538e-4
RAAN
264.8530°
Arg perigee
73.0848°
Mean anomaly
287.0267°
Rev number
4,161

§ Raw data

STARLINK-350401 65480U 25195Y   26144.68907123  .00021490  00000+0  64538-3 0  99922 65480  53.1589 264.8530 0001026  73.0848 287.0267 15.34397510 41615

JSON: /api/v1/satellites/65480 · /tle

For live sub-satellite position, see the globe view (requires WebGL).

§ Visibility from observer

Set your observer location to see the next 7 days of passes ≥ 10°. The values pass through the URL so the page stays shareable.

No JS? Fill the form by hand. The geolocation button needs JavaScript.